Lid_Strength_Index
2 5 7 9 14 16 17 14 12 12 10 8 7 7 7 6 9 11 2 1 1 1 -0 -0 -0 -1 -1 -1 -1 -1 -1 -1 -1 -1 -1 -1 -1 -1 -1 -1 -1 -1 -1 -1 -1 -1 -1 -1 -1
1 3 8 11 16 18 16 13 12 11 9 8 7 6 7 8 4 4 3 1 0 0 -0 -0 -1 -1 -1 -1 -1 -1 -1 -1 -1 -1 -1 -1 -1 -1 -1 -1 -1 -1 -1 -1 -1 -1 -1 -1 -1
0 2 8 14 17 17 15 12 10 9 8 8 8 5 6 7 4 4 2 1 0 0 -0 -0 -0 -1 -1 -1 -1 -1 -1 -1 -1 -1 -1 -1 -1 -1 -1 -1 -1 -1 -1 -1 -1 -1 -1 -1 -1
5 6 8 14 15 13 12 10 8 10 8 8 7 7 6 3 3 2 1 1 1 0 -0 -0 -0 -1 -1 -1 -1 -1 -1 -1 -1 -1 -1 -1 -1 -1 -1 -1 -1 -1 -1 -1 -1 -1 -1 -1 -1
7 11 14 16 16 13 10 9 9 10 9 8 7 8 7 3 2 1 1 1 1 1 0 -0 -0 -0 -1 -1 -1 -1 -1 -1 -1 -1 -1 -1 -1 -1 -1 -1 -1 -1 -1 -1 -1 -1 -1 -1 -1
11 12 17 17 15 13 12 10 10 10 9 9 8 7 7 3 3 2 1 1 1 1 0 -0 -0 -1 -1 -1 -1 -1 -1 -1 -1 -1 -1 -1 -1 -1 -1 -1 -1 -1 -1 -1 -1 -1 -1 -1 -1
13 14 17 16 15 14 12 11 11 10 10 10 8 10 7 4 2 1 1 1 1 0 0 0 -0 -0 -1 -1 -1 -1 -1 -1 -1 -1 -1 -1 -1 -1 -1 -1 -1 -1 -1 -1 -1 -1 -1 -1 -1
11 13 15 15 13 14 11 11 10 10 9 7 7 10 10 8 2 1 1 1 1 1 0 0 0 1 0 -0 -1 -1 -1 -1 -1 -1 -1 -1 -1 -1 -1 -0 -1 -1 -1 -1 -1 -1 -2 -2 -1
10 15 17 15 14 13 10 12 9 9 10 8 8 9 8 6 2 2 3 2 2 1 1 0 0 0 1 0 -0 -1 -1 -1 -1 -1 -1 -0 -0 -0 -0 -1 -1 -1 -1 -1 -2 -2 -2 -2 -2
13 16 15 12 11 12 11 11 10 10 10 10 9 7 7 7 7 4 4 4 3 2 2 1 0 0 0 0 -0 -0 -0 -0 -0 -0 -0 -0 0 0 -0 -1 -1 -1 -1 -1 -2 -2 -2 -1 -0
13 15 12 11 10 10 11 10 9 10 11 10 10 9 8 9 10 10 3 3 3 2 2 1 1 0 0 0 0 -0 -0 -0 -0 -0 -0 0 -0 0 0 0 0 0 -1 0 -0 -0 -0 0 1
14 11 11 11 10 11 12 10 11 10 10 8 8 8 8 8 8 10 10 4 3 2 2 2 1 1 0 0 0 0 0 0 -0 -0 0 0 0 0 0 0 0 0 0 0 0 0 0 1 1
14 12 11 11 11 12 11 11 11 10 9 8 7 8 8 9 9 8 8 8 2 3 2 2 2 1 1 0 0 0 0 0 0 -0 -0 0 0 1 0 0 0 0 0 0 1 2 1 2 2
11 12 12 11 11 11 11 11 11 10 8 8 8 9 9 9 9 9 8 8 3 2 3 3 3 2 1 1 1 1 1 0 1 0 -0 0 0 0 0 1 1 1 0 1 1 2 2 2 1
10 13 12 11 11 11 10 12 12 9 9 9 8 8 8 9 8 9 8 8 4 2 2 3 3 3 2 2 2 1 1 1 1 0 0 0 1 0 1 0 1 0 1 1 2 2 1 2 1
13 13 16 12 10 10 11 14 10 8 8 9 8 7 7 8 8 8 8 8 6 2 2 2 2 2 3 3 2 2 1 1 1 0 0 0 0 0 1 1 2 1 1 1 1 1 1 2 2
14 17 15 13 10 10 11 13 10 8 8 8 8 8 7 7 8 8 7 7 7 2 2 2 2 3 3 4 3 3 2 2 0 0 0 0 0 -0 0 1 2 1 0 0 1 2 2 2 3
15 15 13 13 10 10 10 10 8 8 8 8 8 7 7 7 7 7 7 7 7 2 2 2 1 2 3 2 3 2 2 2 1 0 0 0 1 0 1 1 2 0 1 2 2 2 2 2 3
10 11 12 11 9 11 11 11 9 8 8 9 9 8 8 7 6 6 7 6 6 3 2 2 2 1 2 2 2 2 2 1 1 0 1 0 0 0 2 2 0 1 2 2 2 2 3 4 3
10 12 12 11 10 10 10 10 8 8 7 8 8 7 7 8 7 6 7 8 7 5 2 2 2 2 2 1 1 1 1 1 1 1 1 1 0 1 1 0 1 2 2 2 2 2 3 4 3
10 12 12 12 10 9 11 11 10 8 7 6 6 6 6 8 8 7 6 7 8 7 3 2 2 2 1 1 2 1 1 1 2 1 2 1 0 1 0 0 2 2 2 2 3 3 3 4 3
12 10 10 11 12 15 11 17 11 9 9 8 7 6 6 6 6 7 6 6 7 8 3 2 2 2 2 1 2 2 3 3 2 2 1 1 1 0 0 1 1 2 2 3 3 3 3 3 4
11 9 9 10 13 14 14 17 12 10 10 9 8 7 6 6 6 6 6 6 5 5 6 2 2 2 2 2 2 2 2 2 2 2 2 1 1 0 0 1 2 2 3 4 4 4 3 3 4
8 10 11 12 14 19 14 16 14 13 11 10 9 8 7 7 7 7 6 6 6 5 5 2 2 2 2 2 2 2 2 2 2 2 2 2 1 1 1 2 2 3 4 3 3 3 4 5 5
10 13 19 20 19 19 13 15 13 10 8 8 8 8 7 6 7 6 5 6 6 6 5 3 3 3 2 2 2 2 2 2 2 2 2 2 2 2 2 3 3 4 4 3 3 4 5 5 6
13 13 18 23 22 18 12 17 13 8 7 7 7 7 6 6 6 5 5 5 5 5 6 3 3 3 2 2 2 2 2 2 2 2 2 2 2 1 3 3 4 4 4 4 4 5 6 7 7
13 15 12 16 14 17 16 13 10 8 8 8 8 7 7 7 6 5 4 5 4 4 5 3 3 3 2 2 2 2 2 2 2 2 1 1 1 2 4 4 4 4 5 5 5 6 7 7 8
12 11 16 17 22 21 17 16 16 11 10 9 9 8 7 7 6 5 5 4 4 4 4 2 3 3 2 2 2 2 2 2 1 2 2 1 1 2 4 4 5 5 6 6 6 7 7 8 7
13 14 13 14 16 21 21 17 12 11 9 10 9 7 7 7 6 6 4 4 3 4 4 3 3 3 3 2 2 2 2 2 1 2 1 1 2 3 4 4 5 6 7 6 8 8 8 8 9
11 13 13 18 18 17 18 17 8 9 9 9 8 7 6 6 6 5 4 4 4 5 5 4 3 3 3 2 2 2 2 2 2 2 2 2 3 3 3 5 5 6 6 8 8 7 8 10 11